| time (UTC) | temp C | wind direction | speed KPH | gust KPH | rain 1hr cm | rain 24hr cm | rain mn cm | humidity % | barometer mb |
| 20260507222455 | 12 | 151 | 3.2 | 3.2 | 0.00 | 0.20 | 0.20 | 91 | 1012.1 |
| 20260507221951 | 12 | 145 | 3.2 | 4.8 | 0.00 | 0.20 | 0.20 | 92 | 1012.1 |
| 20260507221448 | 11 | 145 | 3.2 | 3.2 | 0.00 | 0.20 | 0.20 | 90 | 1011.9 |
| 20260507220945 | 12 | 149 | 1.6 | 3.2 | 0.00 | 0.20 | 0.20 | 91 | 1011.9 |
| 20260507220443 | 12 | 124 | 3.2 | 3.2 | 0.00 | 0.20 | 0.20 | 92 | 1011.9 |
| 20260507215939 | 12 | 159 | 1.6 | 3.2 | 0.00 | 0.20 | 0.20 | 92 | 1011.7 |
| 20260507215435 | 12 | 157 | 3.2 | 4.8 | 0.00 | 0.20 | 0.20 | 92 | 1011.8 |
| 20260507214932 | 12 | 132 | 3.2 | 4.8 | 0.00 | 0.20 | 0.20 | 92 | 1011.8 |
| 20260507214430 | 12 | 141 | 3.2 | 3.2 | 0.00 | 0.20 | 0.20 | 92 | 1011.7 |
| 20260507213926 | 12 | 147 | 3.2 | 3.2 | 0.00 | 0.20 | 0.20 | 93 | 1011.8 |
| 20260507213422 | 12 | 141 | 3.2 | 3.2 | 0.00 | 0.20 | 0.20 | 93 | 1011.9 |
| 20260507212919 | 12 | 139 | 3.2 | 3.2 | 0.00 | 0.20 | 0.20 | 93 | 1011.8 |
| 20260507212415 | 12 | 137 | 3.2 | 3.2 | 0.00 | 0.20 | 0.20 | 93 | 1011.5 |
| 20260507211912 | 12 | 129 | 3.2 | 3.2 | 0.00 | 0.20 | 0.20 | 93 | 1011.2 |
| 20260507211409 | 12 | 138 | 3.2 | 3.2 | 0.00 | 0.20 | 0.20 | 93 | 1011.5 |
| 20260507210906 | 12 | 141 | 3.2 | 3.2 | 0.00 | 0.20 | 0.20 | 94 | 1011.6 |
| 20260507210403 | 11 | 135 | 3.2 | 4.8 | 0.00 | 0.20 | 0.20 | 93 | 1011.6 |
| 20260507205859 | 11 | 121 | 3.2 | 3.2 | 0.05 | 0.20 | 0.20 | 92 | 1011.6 |
| 20260507205356 | 11 | 122 | 1.6 | 3.2 | 0.05 | 0.20 | 0.20 | 94 | 1011.6 |
| 20260507204852 | 12 | 128 | 4.8 | 4.8 | 0.05 | 0.18 | 0.18 | 94 | 1011.9 |
| 20260507204349 | 11 | 131 | 1.6 | 3.2 | 0.23 | 0.18 | 0.18 | 93 | 1011.9 |
| 20260507203847 | 12 | 146 | 1.6 | 3.2 | 0.36 | 0.18 | 0.18 | 92 | 1011.8 |
| 20260507203345 | 12 | 145 | 3.2 | 4.8 | 0.23 | 0.15 | 0.15 | 91 | 1012.4 |
| 20260507202840 | 12 | 149 | 3.2 | 3.2 | 0.18 | 0.13 | 0.13 | 90 | 1011.7 |
| 20260507202337 | 12 | 134 | 3.2 | 4.8 | 0.13 | 0.10 | 0.10 | 89 | 1011.7 |
| 20260507201833 | 12 | 131 | 4.8 | 4.8 | 0.05 | 0.10 | 0.10 | 87 | 1011.9 |
| 20260507201328 | 12 | 149 | 3.2 | 4.8 | 0.00 | 0.08 | 0.08 | 84 | 1011.8 |
| 20260507200825 | 13 | 146 | 3.2 | 3.2 | 0.05 | 0.08 | 0.08 | 85 | 1011.9 |
| 20260507200321 | 13 | 151 | 3.2 | 4.8 | 0.05 | 0.08 | 0.08 | 84 | 1011.9 |
| 20260507195817 | 13 | 133 | 3.2 | 3.2 | 0.05 | 0.08 | 0.08 | 83 | 1012.1 |
| 20260507195315 | 13 | 187 | 3.2 | 3.2 | 0.00 | 0.05 | 0.05 | 82 | 1012.3 |
| 20260507194812 | 13 | 128 | 3.2 | 3.2 | 0.00 | 0.05 | 0.05 | 79 | 1012.5 |
| 20260507194308 | 13 | 140 | 3.2 | 3.2 | 0.00 | 0.05 | 0.05 | 79 | 1012.3 |
| 20260507193804 | 13 | 147 | 3.2 | 3.2 | 0.00 | 0.05 | 0.05 | 80 | 1012.0 |
| 20260507193301 | 13 | 140 | 3.2 | 4.8 | 0.00 | 0.05 | 0.05 | 76 | 1012.2 |
| 20260507192757 | 13 | 157 | 3.2 | 4.8 | 0.00 | 0.05 | 0.05 | 77 | 1012.3 |
| 20260507192254 | 13 | 136 | 3.2 | 6.4 | 0.00 | 0.05 | 0.05 | 74 | 1012.1 |
| 20260507191750 | 13 | 152 | 3.2 | 4.8 | 0.00 | 0.05 | 0.05 | 73 | 1012.1 |
| 20260507191247 | 13 | 154 | 3.2 | 4.8 | 0.00 | 0.05 | 0.05 | 71 | 1012.5 |
| 20260507190744 | 13 | 143 | 1.6 | 3.2 | 0.00 | 0.05 | 0.05 | 72 | 1012.5 |
| 20260507190243 | 13 | 154 | 4.8 | 4.8 | 0.00 | 0.05 | 0.05 | 71 | 1012.1 |
| 20260507185741 | 13 | 208 | 4.8 | 4.8 | 0.00 | 0.05 | 0.05 | 71 | 1012.4 |
| 20260507185237 | 13 | 83 | 1.6 | 4.8 | 0.00 | 0.05 | 0.05 | 72 | 1012.2 |
| 20260507184735 | 13 | 169 | 3.2 | 4.8 | 0.00 | 0.05 | 0.05 | 71 | 1012.4 |
| 20260507184232 | 13 | 77 | 0.0 | 4.8 | 0.00 | 0.05 | 0.05 | 71 | 1012.5 |
| 20260507183723 | 13 | 140 | 1.6 | 4.8 | 0.00 | 0.05 | 0.05 | 72 | 1012.4 |
| 20260507183220 | 13 | 146 | 1.6 | 4.8 | 0.00 | 0.05 | 0.05 | 72 | 1012.3 |
| 20260507182718 | 13 | 216 | 1.6 | 4.8 | 0.00 | 0.05 | 0.05 | 71 | 1012.4 |
| 20260507182212 | 13 | 75 | 1.6 | 6.4 | 0.00 | 0.05 | 0.05 | 72 | 1012.4 |
| 20260507181710 | 13 | 104 | 4.8 | 4.8 | 0.00 | 0.05 | 0.05 | 73 | 1012.6 |
| 20260507181206 | 13 | 175 | 1.6 | 4.8 | 0.00 | 0.05 | 0.05 | 72 | 1012.5 |
| 20260507180702 | 13 | 141 | 0.0 | 4.8 | 0.00 | 0.05 | 0.05 | 72 | 1012.4 |
| 20260507180200 | 13 | 141 | 3.2 | 4.8 | 0.00 | 0.05 | 0.05 | 73 | 1012.3 |
| 20260507175655 | 13 | 148 | 3.2 | 4.8 | 0.00 | 0.05 | 0.05 | 73 | 1012.5 |
| 20260507175153 | 13 | 238 | 4.8 | 4.8 | 0.00 | 0.05 | 0.05 | 72 | 1012.4 |
| 20260507174650 | 13 | 113 | 3.2 | 3.2 | 0.00 | 0.05 | 0.05 | 73 | 1012.8 |
| 20260507174148 | 13 | 163 | 3.2 | 6.4 | 0.00 | 0.05 | 0.05 | 71 | 1012.6 |
| 20260507173645 | 13 | 200 | 1.6 | 3.2 | 0.00 | 0.05 | 0.05 | 71 | 1012.5 |
| 20260507173141 | 13 | 150 | 3.2 | 4.8 | 0.00 | 0.05 | 0.05 | 70 | 1013.0 |
| 20260507172637 | 13 | 125 | 3.2 | 3.2 | 0.00 | 0.05 | 0.05 | 71 | 1012.9 |
| 20260507172136 | 13 | 103 | 3.2 | 8.0 | 0.00 | 0.05 | 0.05 | 70 | 1012.8 |
| 20260507171635 | 13 | 155 | 3.2 | 4.8 | 0.00 | 0.05 | 0.05 | 72 | 1012.6 |
| 20260507171133 | 13 | 163 | 4.8 | 4.8 | 0.00 | 0.05 | 0.05 | 72 | 1013.0 |
| 20260507170630 | 13 | 200 | 4.8 | 6.4 | 0.00 | 0.05 | 0.05 | 74 | 1013.0 |
| 20260507170127 | 13 | 175 | 1.6 | 4.8 | 0.00 | 0.05 | 0.05 | 78 | 1013.2 |
| 20260507165622 | 13 | 97 | 3.2 | 4.8 | 0.00 | 0.05 | 0.05 | 79 | 1013.2 |
| 20260507165119 | 13 | 111 | 3.2 | 4.8 | 0.00 | 0.05 | 0.05 | 79 | 1013.3 |
| 20260507164615 | 13 | 137 | 1.6 | 4.8 | 0.00 | 0.05 | 0.05 | 79 | 1013.4 |
| 20260507164112 | 13 | 207 | 1.6 | 6.4 | 0.00 | 0.05 | 0.05 | 77 | 1013.4 |
| 20260507163609 | 13 | 165 | 3.2 | 6.4 | 0.00 | 0.05 | 0.05 | 79 | 1013.5 |
| 20260507163107 | 13 | 139 | 1.6 | 4.8 | 0.00 | 0.05 | 0.05 | 81 | 1013.5 |
| 20260507162602 | 13 | 117 | 4.8 | 4.8 | 0.00 | 0.05 | 0.05 | 84 | 1013.6 |
| 20260507162059 | 12 | 168 | 8.0 | 8.0 | 0.00 | 0.05 | 0.05 | 85 | 1013.4 |
| 20260507161555 | 12 | 192 | 6.4 | 6.4 | 0.00 | 0.05 | 0.05 | 83 | 1013.4 |
| 20260507161052 | 12 | 132 | 1.6 | 9.7 | 0.00 | 0.05 | 0.05 | 85 | 1013.8 |
| 20260507160548 | 12 | 167 | 3.2 | 6.4 | 0.00 | 0.05 | 0.05 | 87 | 1013.6 |
| 20260507160044 | 12 | 178 | 6.4 | 8.0 | 0.00 | 0.05 | 0.05 | 88 | 1013.8 |
| 20260507155540 | 12 | 216 | 4.8 | 6.4 | 0.00 | 0.05 | 0.05 | 88 | 1013.9 |
| 20260507155037 | 12 | 171 | 4.8 | 8.0 | 0.00 | 0.05 | 0.05 | 88 | 1013.8 |
| 20260507154534 | 12 | 138 | 3.2 | 3.2 | 0.00 | 0.05 | 0.05 | 87 | 1013.7 |
| 20260507154026 | 12 | 202 | 4.8 | 6.4 | 0.05 | 0.05 | 0.05 | 87 | 1013.5 |
| 20260507153522 | 13 | 134 | 3.2 | 6.4 | 0.13 | 0.05 | 0.05 | 85 | 1013.8 |
| 20260507153018 | 13 | 179 | 3.2 | 6.4 | 0.05 | 0.05 | 0.05 | 83 | 1013.7 |
| 20260507152513 | 13 | 142 | 3.2 | 8.0 | 0.00 | 0.05 | 0.05 | 80 | 1013.9 |
| 20260507152010 | 13 | 226 | 0.0 | 11.3 | 0.00 | 0.05 | 0.05 | 79 | 1013.8 |
| 20260507151507 | 13 | 140 | 3.2 | 4.8 | 0.00 | 0.05 | 0.05 | 80 | 1013.7 |
| 20260507151004 | 13 | 131 | 4.8 | 4.8 | 0.00 | 0.05 | 0.05 | 80 | 1013.3 |
| 20260507150501 | 13 | 219 | 3.2 | 9.7 | 0.00 | 0.05 | 0.05 | 79 | 1013.6 |
| 20260507145957 | 13 | 156 | 4.8 | 6.4 | 0.00 | 0.05 | 0.05 | 78 | 1013.5 |
| 20260507145453 | 13 | 171 | 3.2 | 8.0 | 0.00 | 0.05 | 0.05 | 76 | 1013.5 |
| 20260507144950 | 13 | 147 | 0.0 | 6.4 | 0.00 | 0.05 | 0.05 | 76 | 1013.9 |
| 20260507144447 | 13 | 147 | 3.2 | 4.8 | 0.00 | 0.05 | 0.05 | 76 | 1013.6 |
| 20260507143944 | 13 | 148 | 3.2 | 9.7 | 0.00 | 0.05 | 0.05 | 77 | 1013.4 |
| 20260507143442 | 13 | 119 | 0.0 | 6.4 | 0.00 | 0.05 | 0.05 | 77 | 1013.1 |
| 20260507142938 | 13 | 142 | 3.2 | 4.8 | 0.00 | 0.05 | 0.05 | 78 | 1013.6 |
| 20260507142434 | 13 | 150 | 3.2 | 3.2 | 0.00 | 0.05 | 0.05 | 80 | 1013.7 |
| 20260507141931 | 13 | 140 | 3.2 | 3.2 | 0.00 | 0.05 | 0.05 | 81 | 1013.7 |
| 20260507141427 | 13 | 191 | 1.6 | 6.4 | 0.00 | 0.05 | 0.05 | 80 | 1013.9 |
| 20260507140924 | 14 | 164 | 3.2 | 8.0 | 0.00 | 0.05 | 0.05 | 80 | 1013.7 |
| 20260507140420 | 14 | 170 | 4.8 | 6.4 | 0.00 | 0.05 | 0.05 | 79 | 1013.9 |
| 20260507135919 | 14 | 158 | 3.2 | 4.8 | 0.00 | 0.05 | 0.05 | 79 | 1013.7 |
| 20260507135415 | 14 | 159 | 6.4 | 9.7 | 0.00 | 0.05 | 0.05 | 79 | 1013.9 |
| 20260507134912 | 14 | 197 | 0.0 | 8.0 | 0.00 | 0.05 | 0.05 | 80 | 1013.8 |
| 20260507134408 | 14 | 174 | 3.2 | 6.4 | 0.00 | 0.05 | 0.05 | 80 | 1014.0 |
| 20260507133904 | 14 | 162 | 1.6 | 9.7 | 0.00 | 0.05 | 0.05 | 81 | 1013.8 |
| 20260507133400 | 14 | 205 | 3.2 | 9.7 | 0.00 | 0.05 | 0.05 | 81 | 1013.6 |
| 20260507132859 | 14 | 162 | 3.2 | 6.4 | 0.00 | 0.05 | 0.05 | 83 | 1013.7 |
| 20260507132355 | 14 | 166 | 4.8 | 8.0 | 0.00 | 0.05 | 0.05 | 83 | 1013.3 |
| 20260507131852 | 14 | 163 | 3.2 | 6.4 | 0.00 | 0.05 | 0.05 | 84 | 1013.6 |
| 20260507131349 | 13 | 156 | 4.8 | 4.8 | 0.00 | 0.05 | 0.05 | 83 | 1013.3 |
| 20260507130846 | 14 | 209 | 1.6 | 9.7 | 0.00 | 0.05 | 0.05 | 83 | 1013.6 |
| 20260507130343 | 14 | 146 | 3.2 | 8.0 | 0.00 | 0.05 | 0.05 | 83 | 1013.6 |
| 20260507125842 | 14 | 150 | 3.2 | 3.2 | 0.00 | 0.05 | 0.05 | 83 | 1013.4 |
| 20260507125339 | 14 | 214 | 4.8 | 8.0 | 0.00 | 0.05 | 0.05 | 81 | 1013.8 |
| 20260507124837 | 14 | 152 | 4.8 | 4.8 | 0.00 | 0.05 | 0.05 | 82 | 1013.6 |
| 20260507124332 | 14 | 165 | 3.2 | 11.3 | 0.00 | 0.05 | 0.05 | 83 | 1013.6 |
| 20260507123831 | 13 | 143 | 1.6 | 8.0 | 0.00 | 0.05 | 0.05 | 82 | 1013.8 |
| 20260507123328 | 13 | 169 | 1.6 | 6.4 | 0.00 | 0.05 | 0.05 | 83 | 1013.5 |
| 20260507122824 | 13 | 136 | 4.8 | 6.4 | 0.00 | 0.05 | 0.05 | 83 | 1013.7 |
| 20260507122319 | 13 | 176 | 6.4 | 6.4 | 0.00 | 0.05 | 0.05 | 83 | 1013.7 |
| 20260507121816 | 13 | 179 | 4.8 | 6.4 | 0.00 | 0.05 | 0.05 | 83 | 1013.6 |
| 20260507121312 | 13 | 172 | 8.0 | 8.0 | 0.00 | 0.05 | 0.05 | 83 | 1013.5 |
| 20260507120809 | 13 | 185 | 6.4 | 9.7 | 0.00 | 0.05 | 0.05 | 83 | 1013.6 |
| 20260507120305 | 13 | 191 | 3.2 | 4.8 | 0.00 | 0.05 | 0.05 | 83 | 1013.3 |
| 20260507115801 | 13 | 155 | 3.2 | 4.8 | 0.00 | 0.05 | 0.05 | 83 | 1013.2 |
| 20260507115256 | 13 | 163 | 4.8 | 4.8 | 0.00 | 0.05 | 0.05 | 83 | 1013.8 |
| 20260507114753 | 13 | 148 | 1.6 | 4.8 | 0.00 | 0.05 | 0.05 | 82 | 1013.6 |
| 20260507114250 | 13 | 215 | 3.2 | 3.2 | 0.00 | 0.05 | 0.05 | 82 | 1013.8 |
| 20260507113748 | 13 | 229 | 4.8 | 4.8 | 0.00 | 0.05 | 0.05 | 82 | 1013.4 |
| 20260507113244 | 13 | 153 | 3.2 | 3.2 | 0.00 | 0.05 | 0.05 | 82 | 1013.8 |
| 20260507112742 | 13 | 200 | 3.2 | 6.4 | 0.00 | 0.05 | 0.05 | 82 | 1013.4 |
| 20260507112238 | 13 | 175 | 3.2 | 4.8 | 0.00 | 0.05 | 0.05 | 82 | 1013.3 |
| 20260507111737 | 13 | 133 | 3.2 | 6.4 | 0.00 | 0.05 | 0.05 | 81 | 1012.9 |
| 20260507111233 | 13 | 166 | 3.2 | 4.8 | 0.00 | 0.05 | 0.05 | 81 | 1012.8 |
| 20260507110729 | 13 | 169 | 3.2 | 4.8 | 0.00 | 0.05 | 0.05 | 81 | 1013.0 |
| 20260507110226 | 13 | 178 | 3.2 | 4.8 | 0.00 | 0.05 | 0.05 | 81 | 1013.1 |
| 20260507105722 | 13 | 146 | 1.6 | 9.7 | 0.00 | 0.05 | 0.05 | 80 | 1013.2 |
| 20260507105219 | 13 | 170 | 3.2 | 8.0 | 0.00 | 0.05 | 0.05 | 81 | 1012.9 |
| 20260507104716 | 13 | 145 | 3.2 | 3.2 | 0.00 | 0.05 | 0.05 | 80 | 1012.8 |
| 20260507104213 | 13 | 175 | 3.2 | 9.7 | 0.00 | 0.05 | 0.05 | 79 | 1012.8 |
| 20260507103708 | 13 | 208 | 1.6 | 6.4 | 0.00 | 0.05 | 0.05 | 80 | 1012.8 |
| 20260507103205 | 13 | 163 | 3.2 | 6.4 | 0.00 | 0.05 | 0.05 | 80 | 1012.8 |
| 20260507102701 | 13 | 163 | 4.8 | 6.4 | 0.00 | 0.05 | 0.05 | 79 | 1012.8 |
| 20260507102158 | 13 | 168 | 3.2 | 6.4 | 0.00 | 0.05 | 0.05 | 80 | 1012.6 |
| 20260507101654 | 13 | 152 | 3.2 | 9.7 | 0.00 | 0.05 | 0.05 | 80 | 1012.2 |
| 20260507101149 | 13 | 169 | 1.6 | 9.7 | 0.00 | 0.05 | 0.05 | 81 | 1012.0 |
| 20260507100647 | 13 | 186 | 9.7 | 9.7 | 0.00 | 0.05 | 0.05 | 83 | 1012.3 |
| 20260507100145 | 13 | 166 | 3.2 | 4.8 | 0.00 | 0.05 | 0.05 | 84 | 1012.7 |
| 20260507095643 | 13 | 154 | 0.0 | 4.8 | 0.00 | 0.05 | 0.05 | 85 | 1012.7 |
| 20260507095139 | 13 | 171 | 3.2 | 14.5 | 0.00 | 0.05 | 0.05 | 86 | 1013.1 |
| 20260507094636 | 13 | 160 | 3.2 | 9.7 | 0.00 | 0.05 | 0.05 | 88 | 1012.9 |
| 20260507094132 | 13 | 149 | 3.2 | 6.4 | 0.00 | 0.05 | 0.05 | 88 | 1012.6 |
| 20260507093630 | 13 | 173 | 0.0 | 4.8 | 0.00 | 0.05 | 0.05 | 88 | 1012.7 |
| 20260507093129 | 13 | 171 | 3.2 | 6.4 | 0.00 | 0.05 | 0.05 | 88 | 1012.9 |
| 20260507092625 | 13 | 144 | 3.2 | 4.8 | 0.00 | 0.05 | 0.05 | 90 | 1012.9 |
| 20260507092121 | 13 | 156 | 3.2 | 4.8 | 0.00 | 0.05 | 0.05 | 89 | 1012.7 |
| 20260507091618 | 13 | 162 | 1.6 | 4.8 | 0.00 | 0.05 | 0.05 | 89 | 1012.5 |
| 20260507091114 | 13 | 100 | 3.2 | 6.4 | 0.00 | 0.05 | 0.05 | 90 | 1012.4 |
| 20260507090610 | 13 | 216 | 1.6 | 8.0 | 0.05 | 0.05 | 0.05 | 89 | 1012.3 |
| 20260507090108 | 14 | 186 | 4.8 | 8.0 | 0.05 | 0.05 | 0.05 | 90 | 1012.4 |
| 20260507085604 | 14 | 134 | 6.4 | 12.9 | 0.05 | 0.03 | 0.03 | 88 | 1012.5 |
| 20260507085101 | 14 | 158 | 3.2 | 16.1 | 0.13 | 0.03 | 0.03 | 87 | 1012.1 |
| 20260507084558 | 15 | 137 | 4.8 | 4.8 | 0.13 | 0.03 | 0.03 | 90 | 1012.4 |
| 20260507084055 | 15 | 156 | 3.2 | 8.0 | 0.05 | 0.00 | 0.00 | 89 | 1012.1 |
| 20260507083551 | 15 | 179 | 4.8 | 8.0 | 0.00 | 0.00 | 0.00 | 89 | 1012.0 |
| 20260507083048 | 15 | 161 | 8.0 | 12.9 | 0.00 | 0.00 | 0.00 | 88 | 1012.1 |
| 20260507082544 | 16 | 241 | 3.2 | 11.3 | 0.00 | 0.00 | 0.00 | 88 | 1012.1 |
| 20260507082041 | 16 | 199 | 3.2 | 12.9 | 0.00 | 0.00 | 0.00 | 88 | 1012.0 |
| 20260507081537 | 16 | 179 | 9.7 | 9.7 | 0.00 | 0.00 | 0.00 | 87 | 1012.2 |
| 20260507081034 | 17 | 293 | 4.8 | 9.7 | 0.00 | 0.00 | 0.00 | 87 | 1011.8 |
| 20260507080530 | 18 | 193 | 4.8 | 8.0 | 0.00 | 0.00 | 0.00 | 89 | 1011.8 |
| 20260507080027 | 18 | 160 | 3.2 | 8.0 | 0.00 | 0.00 | 0.00 | 92 | 1011.5 |
| 20260507075522 | 18 | 178 | 3.2 | 4.8 | 0.00 | 0.00 | 0.00 | 92 | 1011.3 |
| 20260507075019 | 18 | 167 | 4.8 | 4.8 | 0.00 | 0.00 | 0.00 | 92 | 1011.2 |
| 20260507074515 | 18 | 179 | 3.2 | 4.8 | 0.00 | 0.00 | 0.00 | 92 | 1010.5 |
| 20260507074014 | 18 | 174 | 3.2 | 3.2 | 0.00 | 0.00 | 0.00 | 92 | 1011.0 |
| 20260507073510 | 18 | 170 | 3.2 | 4.8 | 0.00 | 0.00 | 0.00 | 92 | 1011.2 |
| 20260507073006 | 18 | 162 | 3.2 | 3.2 | 0.00 | 0.00 | 0.00 | 92 | 1011.1 |
| 20260507072504 | 18 | 162 | 3.2 | 4.8 | 0.00 | 0.00 | 0.00 | 92 | 1011.2 |
| 20260507072001 | 18 | 167 | 1.6 | 3.2 | 0.00 | 0.00 | 0.00 | 91 | 1011.2 |
| 20260507071458 | 18 | 189 | 3.2 | 3.2 | 0.00 | 0.00 | 0.00 | 91 | 1011.3 |
| 20260507070954 | 18 | 178 | 3.2 | 3.2 | 0.00 | 0.00 | 0.00 | 91 | 1011.3 |
| 20260507070452 | 19 | 174 | 4.8 | 4.8 | 0.00 | 0.00 | 0.00 | 91 | 1011.3 |
| 20260507065948 | 19 | 180 | 3.2 | 4.8 | 0.00 | 0.00 | 0.00 | 91 | 1011.1 |
| 20260507065445 | 19 | 167 | 3.2 | 3.2 | 0.00 | 0.00 | 0.00 | 90 | 1010.9 |
| 20260507064942 | 19 | 156 | 3.2 | 3.2 | 0.00 | 0.00 | 0.00 | 90 | 1010.9 |
| 20260507064440 | 19 | 166 | 3.2 | 4.8 | 0.00 | 0.00 | 0.00 | 89 | 1010.8 |
| 20260507063938 | 19 | 146 | 1.6 | 3.2 | 0.00 | 0.00 | 0.00 | 89 | 1010.4 |
| 20260507063434 | 19 | 144 | 1.6 | 3.2 | 0.00 | 0.00 | 0.00 | 89 | 1010.6 |
| 20260507062931 | 19 | 158 | 3.2 | 4.8 | 0.00 | 0.00 | 0.00 | 89 | 1010.4 |
| 20260507062429 | 19 | 157 | 3.2 | 3.2 | 0.00 | 0.00 | 0.00 | 88 | 1010.5 |
| 20260507061926 | 19 | 153 | 3.2 | 4.8 | 0.00 | 0.00 | 0.00 | 89 | 1010.1 |
| 20260507061424 | 19 | 161 | 3.2 | 3.2 | 0.00 | 0.00 | 0.00 | 89 | 1010.2 |
| 20260507060923 | 19 | 156 | 3.2 | 3.2 | 0.00 | 0.00 | 0.00 | 89 | 1010.2 |
| 20260507060419 | 19 | 158 | 3.2 | 3.2 | 0.00 | 0.00 | 0.00 | 88 | 1010.1 |
| 20260507055916 | 19 | 159 | 3.2 | 3.2 | 0.00 | 0.00 | 0.00 | 88 | 1010.1 |
| 20260507055410 | 19 | 165 | 3.2 | 3.2 | 0.00 | 0.00 | 0.00 | 88 | 1010.4 |
| 20260507054908 | 19 | 165 | 3.2 | 3.2 | 0.00 | 0.00 | 0.00 | 88 | 1010.2 |
| 20260507054404 | 19 | 158 | 3.2 | 3.2 | 0.00 | 0.00 | 0.00 | 88 | 1010.4 |
| 20260507053901 | 19 | 145 | 3.2 | 3.2 | 0.00 | 0.00 | 0.00 | 88 | 1010.3 |
| 20260507053353 | 19 | 119 | 1.6 | 3.2 | 0.00 | 0.00 | 0.00 | 88 | 1010.2 |
| 20260507052852 | 19 | 167 | 1.6 | 3.2 | 0.00 | 0.00 | 0.00 | 88 | 1010.4 |
| 20260507052348 | 19 | 161 | 1.6 | 3.2 | 0.00 | 0.00 | 0.00 | 88 | 1010.4 |
| 20260507051846 | 19 | 138 | 3.2 | 3.2 | 0.00 | 0.00 | 0.00 | 88 | 1010.6 |
| 20260507051343 | 19 | 151 | 1.6 | 3.2 | 0.00 | 0.00 | 0.00 | 88 | 1010.9 |
| 20260507050839 | 19 | 162 | 1.6 | 3.2 | 0.00 | 0.00 | 0.00 | 88 | 1010.8 |
| 20260507050336 | 19 | 170 | 3.2 | 3.2 | 0.00 | 0.00 | 0.00 | 88 | 1011.0 |
| 20260507045833 | 19 | 141 | 3.2 | 3.2 | 0.00 | 0.00 | 0.00 | 88 | 1011.5 |
| 20260507045329 | 19 | 151 | 1.6 | 3.2 | 0.00 | 0.00 | 0.00 | 88 | 1011.3 |
| 20260507044827 | 19 | 162 | 1.6 | 3.2 | 0.00 | 0.00 | 0.00 | 88 | 1011.4 |
| 20260507044324 | 19 | 153 | 3.2 | 3.2 | 0.00 | 0.00 | 0.00 | 88 | 1011.4 |
| 20260507043819 | 19 | 116 | 1.6 | 3.2 | 0.00 | 0.00 | 0.00 | 88 | 1011.6 |
| 20260507043316 | 19 | 144 | 3.2 | 3.2 | 0.00 | 0.00 | 0.00 | 88 | 1011.4 |
| 20260507042812 | 19 | 159 | 3.2 | 3.2 | 0.00 | 0.00 | 0.00 | 88 | 1011.5 |
| 20260507042308 | 19 | 157 | 3.2 | 3.2 | 0.00 | 0.00 | 0.00 | 88 | 1011.8 |
| 20260507041805 | 19 | 162 | 3.2 | 4.8 | 0.00 | 0.00 | 0.00 | 88 | 1011.7 |
| 20260507041302 | 19 | 151 | 3.2 | 3.2 | 0.00 | 0.00 | 0.00 | 88 | 1011.7 |
| 20260507040759 | 19 | 146 | 3.2 | 3.2 | 0.00 | 0.00 | 0.00 | 87 | 1011.2 |
| 20260507040255 | 19 | 134 | 1.6 | 3.2 | 0.00 | 0.00 | 0.00 | 87 | 1011.0 |
| 20260507035751 | 19 | 174 | 3.2 | 4.8 | 0.00 | 0.18 | 0.18 | 87 | 1011.2 |
| 20260507035246 | 19 | 152 | 3.2 | 3.2 | 0.00 | 0.18 | 0.18 | 88 | 1011.4 |
| 20260507034745 | 19 | 128 | 1.6 | 3.2 | 0.00 | 0.18 | 0.18 | 88 | 1011.5 |
| 20260507034241 | 19 | 144 | 3.2 | 3.2 | 0.00 | 0.18 | 0.18 | 87 | 1011.9 |
| 20260507033740 | 19 | 130 | 3.2 | 3.2 | 0.00 | 0.18 | 0.18 | 87 | 1011.9 |
| 20260507033237 | 19 | 161 | 3.2 | 4.8 | 0.00 | 0.18 | 0.18 | 88 | 1011.7 |
| 20260507032734 | 19 | 160 | 3.2 | 3.2 | 0.00 | 0.18 | 0.18 | 88 | 1011.5 |
| 20260507032230 | 19 | 166 | 1.6 | 3.2 | 0.00 | 0.18 | 0.18 | 87 | 1011.5 |
| 20260507031726 | 19 | 155 | 3.2 | 3.2 | 0.00 | 0.18 | 0.18 | 87 | 1011.6 |
| 20260507031223 | 19 | 147 | 3.2 | 4.8 | 0.00 | 0.18 | 0.18 | 88 | 1011.2 |
| 20260507030720 | 19 | 157 | 0.0 | 3.2 | 0.00 | 0.18 | 0.18 | 88 | 1011.0 |
| 20260507030218 | 19 | 178 | 3.2 | 3.2 | 0.00 | 0.18 | 0.18 | 87 | 1011.1 |
| 20260507025715 | 19 | 134 | 1.6 | 3.2 | 0.00 | 0.18 | 0.18 | 87 | 1011.1 |
| 20260507025212 | 19 | 157 | 3.2 | 4.8 | 0.00 | 0.18 | 0.18 | 88 | 1011.3 |
| 20260507024710 | 19 | 148 | 3.2 | 3.2 | 0.00 | 0.18 | 0.18 | 88 | 1010.9 |
| 20260507024207 | 19 | 145 | 3.2 | 3.2 | 0.00 | 0.18 | 0.18 | 88 | 1010.8 |
| 20260507023702 | 19 | 181 | 0.0 | 3.2 | 0.00 | 0.18 | 0.18 | 88 | 1011.0 |
| 20260507023159 | 19 | 166 | 3.2 | 3.2 | 0.00 | 0.18 | 0.18 | 88 | 1011.3 |
| 20260507022656 | 19 | 151 | 3.2 | 3.2 | 0.00 | 0.18 | 0.18 | 88 | 1011.1 |
| 20260507022152 | 19 | 156 | 3.2 | 3.2 | 0.00 | 0.18 | 0.18 | 88 | 1011.3 |
| 20260507021649 | 19 | 171 | 1.6 | 3.2 | 0.00 | 0.18 | 0.18 | 88 | 1011.3 |
| 20260507021144 | 19 | 160 | 1.6 | 4.8 | 0.00 | 0.18 | 0.18 | 88 | 1011.3 |
| 20260507020643 | 19 | 151 | 3.2 | 3.2 | 0.00 | 0.18 | 0.18 | 88 | 1011.6 |
| 20260507020138 | 19 | 164 | 3.2 | 3.2 | 0.00 | 0.18 | 0.18 | 88 | 1011.3 |
| 20260507015637 | 19 | 164 | 3.2 | 3.2 | 0.00 | 0.18 | 0.18 | 88 | 1011.6 |
| 20260507015134 | 19 | 169 | 3.2 | 3.2 | 0.00 | 0.18 | 0.18 | 88 | 1011.5 |
| 20260507014631 | 19 | 165 | 3.2 | 3.2 | 0.00 | 0.18 | 0.18 | 87 | 1011.6 |
| 20260507014126 | 19 | 168 | 3.2 | 3.2 | 0.00 | 0.18 | 0.18 | 87 | 1011.6 |
| 20260507013623 | 19 | 165 | 3.2 | 3.2 | 0.00 | 0.18 | 0.18 | 87 | 1011.5 |
| 20260507013120 | 19 | 164 | 3.2 | 3.2 | 0.00 | 0.18 | 0.18 | 87 | 1011.4 |
| 20260507012618 | 19 | 152 | 3.2 | 3.2 | 0.00 | 0.18 | 0.18 | 87 | 1011.6 |
| 20260507012113 | 19 | 178 | 3.2 | 3.2 | 0.00 | 0.18 | 0.18 | 87 | 1011.3 |
| 20260507011612 | 19 | 167 | 3.2 | 3.2 | 0.00 | 0.18 | 0.18 | 87 | 1011.4 |
| 20260507011108 | 19 | 170 | 3.2 | 3.2 | 0.00 | 0.18 | 0.18 | 86 | 1011.5 |
| 20260507010603 | 19 | 170 | 3.2 | 3.2 | 0.00 | 0.18 | 0.18 | 86 | 1011.6 |
| 20260507010058 | 19 | 155 | 3.2 | 3.2 | 0.00 | 0.18 | 0.18 | 86 | 1011.2 |
| 20260507005556 | 19 | 141 | 1.6 | 3.2 | 0.00 | 0.18 | 0.18 | 85 | 1011.0 |
| 20260507005052 | 19 | 142 | 1.6 | 3.2 | 0.00 | 0.18 | 0.18 | 85 | 1011.1 |
| 20260507004549 | 19 | 139 | 0.0 | 3.2 | 0.00 | 0.18 | 0.18 | 86 | 1011.1 |
| 20260507004047 | 19 | 129 | 3.2 | 4.8 | 0.00 | 0.18 | 0.18 | 85 | 1011.4 |
| 20260507003542 | 19 | 156 | 0.0 | 3.2 | 0.00 | 0.18 | 0.18 | 85 | 1011.3 |
| 20260507003038 | 20 | 165 | 1.6 | 3.2 | 0.00 | 0.18 | 0.18 | 85 | 1011.4 |
| 20260507002535 | 20 | 169 | 3.2 | 3.2 | 0.00 | 0.18 | 0.18 | 84 | 1011.3 |
| 20260507002030 | 20 | 156 | 3.2 | 3.2 | 0.00 | 0.18 | 0.18 | 84 | 1011.3 |
| 20260507001527 | 20 | 154 | 3.2 | 3.2 | 0.00 | 0.18 | 0.18 | 84 | 1011.3 |
| 20260507001025 | 20 | 151 | 1.6 | 4.8 | 0.00 | 0.18 | 0.18 | 83 | 1011.3 |
| 20260507000520 | 20 | 155 | 1.6 | 4.8 | 0.00 | 0.18 | 0.18 | 83 | 1011.3 |
| 20260507000016 | 20 | 162 | 3.2 | 4.8 | 0.00 | 0.18 | 0.18 | 82 | 1011.4 |
| 20260506235514 | 20 | 161 | 3.2 | 3.2 | 0.00 | 0.18 | 0.18 | 82 | 1011.2 |
| 20260506235009 | 20 | 178 | 1.6 | 4.8 | 0.00 | 0.18 | 0.18 | 81 | 1011.3 |
| 20260506234508 | 20 | 175 | 3.2 | 3.2 | 0.00 | 0.18 | 0.18 | 81 | 1011.2 |
| 20260506234004 | 20 | 171 | 3.2 | 4.8 | 0.00 | 0.18 | 0.18 | 80 | 1011.2 |
| 20260506233501 | 20 | 154 | 3.2 | 4.8 | 0.00 | 0.18 | 0.18 | 80 | 1011.0 |
| 20260506232957 | 21 | 148 | 1.6 | 4.8 | 0.00 | 0.18 | 0.18 | 79 | 1010.9 |
| 20260506232454 | 21 | 144 | 1.6 | 3.2 | 0.00 | 0.18 | 0.18 | 79 | 1011.3 |
| 20260506231949 | 21 | 154 | 3.2 | 3.2 | 0.00 | 0.18 | 0.18 | 78 | 1011.2 |
| 20260506231447 | 21 | 175 | 1.6 | 4.8 | 0.00 | 0.18 | 0.18 | 77 | 1011.3 |
| 20260506230944 | 21 | 156 | 3.2 | 3.2 | 0.00 | 0.18 | 0.18 | 77 | 1011.0 |
| 20260506230440 | 21 | 173 | 3.2 | 3.2 | 0.00 | 0.18 | 0.18 | 77 | 1010.9 |
| 20260506225937 | 21 | 168 | 3.2 | 3.2 | 0.00 | 0.18 | 0.18 | 76 | 1011.0 |
| 20260506225435 | 21 | 174 | 1.6 | 3.2 | 0.00 | 0.18 | 0.18 | 77 | 1011.2 |
| 20260506224931 | 21 | 158 | 1.6 | 3.2 | 0.00 | 0.18 | 0.18 | 76 | 1011.1 |
| 20260506224429 | 21 | 173 | 1.6 | 3.2 | 0.00 | 0.18 | 0.18 | 77 | 1011.3 |
| 20260506223925 | 21 | 162 | 3.2 | 3.2 | 0.00 | 0.18 | 0.18 | 78 | 1011.3 |
| 20260506223420 | 21 | 145 | 0.0 | 3.2 | 0.00 | 0.18 | 0.18 | 78 | 1010.9 |
| 20260506222918 | 21 | 168 | 1.6 | 3.2 | 0.00 | 0.18 | 0.18 | 77 | 1011.2 |